www.pogodaiklimat.ru

Погода и климат >> Архив погоды >> Оман >> Адам


ПОГОДА в Адаме

  • Прогноз погоды в Адаме
  • Монитор погоды в Адаме

АРХИВ ПОГОДЫ в Адаме

Время (UTC), дата Ветер
(напр.,м/с)
 
Видим.   Явления Облачность Т
(С)
Тd
(С)
f
(%)
Тe
(С)
Тes
(С)
Комфортность P
(гПа)
Po
(гПа)
Тmin
(С)
Tmax
(С)
R
(мм)
R24
(мм)
S
(см)
03 17.03 В 5 н/о ясно +19.1 +15.8 81 +20 +21 1016.9 978.7
06 17.03 В 5 н/о ясно +22.9 +15.4 63 +27 +35 душно 1017.3 979.6 +18.7
09 17.03 ЮВ 6 н/о ясно +28.8 +12.5 37 +30 +38 жарко 1012.7 975.9
12 17.03 нст 5 н/о ясно +31.8 +10.8 28 +32 +35 жарко 1009.9 973.6
15 17.03 Ю 6 н/о ясно +30.7 +12.9 34 +32 +32 жарко 1010.5 974.0
18 17.03 Ю 8 н/о ясно +24.8 +15.6 57 +28 +28 жарко 1013.2 975.9 +32.6
21 17.03 ЮВ 7 н/о 6/0
[]
+21.9 +18.2 80 +27 +27 душно 1013.3 975.6
00 18.03 З 4 н/о 10/0
[]
+21.7 +18.2 80 +26 +26 душно 1014.7 976.9
03 18.03 С 2 н/о 5/0
[]
+21.3 +17.6 79 +25 +26 комфорт 1015.4 977.6
06 18.03 нст 2 н/о ясно +24.8 +16.6 60 +28 +42 жарко 1015.8 978.4 +20.6
09 18.03 нст 4 н/о 1/0
[]
+29.0 +15.4 44 +32 +43 душно 1013.1 976.3
12 18.03 З 8 н/о ясно +32.4 +6.9 20 +31 +32 жарко 1010.1 973.8
15 18.03 З 7 н/о ясно +29.0 -3.0 12 +26 +26 жарко 1011.5 974.8
18 18.03 З 5 н/о ясно +22.9 -1.1 20 +22 +22 комфорт 1014.2 976.6 +33.2
21 18.03 нст 1 н/о ясно +18.3 +0.1 29 +20 +20 1014.1 975.9
00 19.03 Ю 1 н/о ясно +14.9 +2.2 42 +16 +16 1014.0 975.4
03 19.03 нст 1 н/о ясно +13.4 +3.0 49 +14 +15 1015.6 976.7
06 19.03 нст 2 н/о ясно +24.0 -0.8 19 +23 +36 комфорт 1015.1 977.6 +11.9
09 19.03 нст 5 н/о ясно +31.5 -10.2 6 +27 +36 жарко 1010.7 974.3
12 19.03 СЗ 9 н/о ясно +32.2 -5.9 8 +28 +29 жарко 1008.3 972.0
15 19.03 З 9 н/о ясно +26.8 -0.9 16 +25 +25 комфорт 1010.3 973.3
18 19.03 З 8 н/о ясно +22.2 +2.0 26 +22 +22 комфорт 1012.7 975.1 +33.6
21 19.03 нст 1 н/о ясно +18.5 +1.6 32 +20 +20 1012.7 974.6
00 20.03 С 6 н/о ясно +18.3 +8.9 54 +18 +18 1011.6 973.5
03 20.03 С 2 н/о ясно +17.3 +4.4 42 +18 +19 1013.2 974.9
06 20.03 нст 1 н/о ясно +24.8 +8.5 35 +25 +41 комфорт 1013.4 976.1 +15.7
09 20.03 нст 4 н/о 1/0
[]
+29.8 +0.7 15 +27 +40 жарко 1010.6 974.0
12 20.03 З 7 н/о ясно +33.2 -8.9 6 +29 +30 жарко 1007.6 971.5
15 20.03 З 7 н/о ясно +28.9 -5.5 10 +25 +25 комфорт 1009.6 972.9
18 20.03 З 4 н/о 10/0
[]
+25.3 -2.1 16 +23 +23 комфорт 1011.8 974.6 +33.9
21 20.03 В 2 н/о ясно +22.7 +0.7 23 +22 +22 комфорт 1011.7 974.2
00 21.03 В 6 н/о ясно +19.9 +17.3 85 +22 +22 комфорт 1012.0 974.1
03 21.03 нст 3 н/о ясно +19.5 +16.4 82 +22 +23 комфорт 1013.9 975.9
06 21.03 нст 2 н/о ясно +25.0 +15.8 57 +28 +43 жарко 1014.4 977.1 +19.1
09 21.03 нст 3 н/о 1/0
[]
+31.1 +9.1 26 +30 +46 жарко 1011.8 975.3
12 21.03 нст 2 н/о ясно +33.3 +3.6 15 +30 +36 жарко 1009.5 973.3
15 21.03 Ю 3 н/о 10/0
[]
+31.8 +4.1 17 +29 +29 жарко 1010.9 974.5
18 21.03 ЮВ 9 н/о 1/0
[]
+28.0 +13.8 42 +30 +30 жарко 1013.5 976.6 +34.1
21 21.03 В 6 н/о 3/0
[]
+23.9 +13.9 54 +26 +26 жарко 1015.5 978.0
00 22.03 В 3 н/о ясно +21.0 +16.3 75 +25 +25 комфорт 1014.5 976.7
03 22.03 В 3 н/о 6/0
[]
+20.8 +16.5 76 +25 +25 комфорт 1016.1 978.2
06 22.03 нст 3 н/о ясно +25.6 +10.8 39 +27 +38 жарко 1017.0 979.6 +20.4
09 22.03 нст 2 н/о ясно +30.0 +4.9 20 +28 +48 жарко 1014.1 977.4
12 22.03 нст 4 н/о ясно +31.6 +3.1 16 +29 +33 жарко 1012.0 975.5
15 22.03 В 4 н/о ясно +30.4 +2.1 16 +28 +28 жарко 1013.0 976.4
18 22.03 ЮВ 11 н/о 6/0
[]
+25.6 +18.7 66 +31 +31 очень
душно
1015.6 978.3 +32.2
21 22.03 В 7 н/о 1/0
[]
+22.9 +18.5 76 +29 +29 очень
душно
1016.1 978.4
00 23.03 В 8 н/о 6/0
[]
+21.8 +17.5 77 +26 +26 душно 1014.5 976.8
03 23.03 В 5 н/о 9/0
[]
+21.0 +18.1 84 +25 +26 комфорт 1016.6 978.7
06 23.03 В 5 н/о 5/0
[]
+24.3 +15.9 59 +27 +33 жарко 1017.1 979.6 +20.7
09 23.03 нст 3 н/о 10/0
[]
+27.7 +14.2 44 +30 +38 жарко 1014.9 977.9
12 23.03 ЮВ 5 н/о 6/0
[]
+28.6 +15.0 44 +31 +34 жарко 1011.4 974.6
15 23.03 С 5 н/о 9/0
[]
+28.4 +14.5 43 +31 +31 душно 1012.6 975.7
18 23.03 Ю 4 н/о ясно +25.1 +13.5 49 +27 +27 жарко 1014.0 976.7 +29.2
21 23.03 ЮВ 8 н/о ясно +23.0 +19.2 79 +29 +29 очень
душно
1013.5 976.0

 

Местоположение метеостанции Адам (Оман): широта 22.38 долгота 57.52 высота над уровнем моря 285 м.

В архиве по умолчанию представлена погода в Адаме за последнюю неделю. Архивные данные за месяц целиком и за предыдущие месяцы, начиная с января 2011 года, Вы можете получить, выбрав интересующий диапазон дат из раскрывающегося списка и нажав кнопку "Ввод!".


*Определитесь, кто Вы:
робот инопланетянин человек

Внимание! Время в таблицах - всемирное. Для получения местного времени необходимо прибавить поправку, которая равна 4 ч.

Смотрите также архив погоды в соседних городах и на ближайших метеорологических станциях:

Погода в Назве (Оман) (52 км)
Погода в Аль Мудайби (Оман) (64 км)
Погода в Бахле (Оман) (70 км)
Погода в Саике (Оман) (78 км)
Погода на Эш-Шам (Оман) (99 км)
Погода в Фахуде (Оман) (107 км)
Погода в Ибре (Оман) (108 км)
Погода в Самаиле (Оман) (111 км)
Погода в Рустаке (Оман) (114 км)
Погода в Карн Аль Алам (Оман) (122 км)

Пояснения к столбцам:

Ветер - указаны скорость ветра в м/с - средняя за 10 мин, порывы в срок и между сроками (в фигурных скобках) и направление, откуда дует ветер: С - северный, СВ - северо-восточный, В - восточный, ЮВ - юго-восточный, Ю - южный, ЮЗ - юго-западный, З - западный, СЗ - северо-западный.
Видимость - горизонтальная дальность видимости в метрах или километрах. При видимости от 1 до 10 км при отсутствии осадков обычно наблюдается дымка, при ухудшении видимости до 1 км и менее - туман. В сухую погоду видимость может ухудшаться дымом, пылью или мглою.
Явления - указаны атмосферные явления, наблюдавшиеся в срок или в последний час перед сроком; фигурными скобками обозначены явления, наблюдавшиеся между сроками (за 1-3 часа до срока); квадратными скобками обозначены град или гололедные отложения с указанием их диаметра в мм.
Облачность - указаны через наклонную черту общая и нижняя облачность в баллах и высота нижней границы облаков в метрах; квадратными скобками обозначены формы облаков: Ci - перистые, Cs - перисто-слоистые, Cc - перисто-кучевые, Ac - высококучевые, As - высокослоистые, Sc - слоисто-кучевые, Ns - слоисто-дождевые, Cu - кучевые, Cb - кучево-дождевые. Подробнее классификацию облаков см. в Атласе облаков (PDF).
T - Температура воздуха - температура, измеренная на высоте 2 м над землей.
Td - Температура точки росы - температура, при понижении до которой содержащийся в воздухе водяной пар достигнет насыщения.
f - Относительная влажность воздуха - влажноcть воздуха, измеренная на высоте 2 м над землей.
Te - Эффективная температура - температура, которую ощущает одетый по сезону человек в тени. Характеристика душности погоды. При расчете учитывается влияние влажности воздуха и скорости ветра на теплоощущения человека.
Tes - Эффективная температура на солнце - температура, которую ощущает человек, с поправкой на солнечный нагрев. Характеристика знойности погоды. Зависит от высоты солнца над горизонтом, облачности и скорости ветра. Ночью, в пасмурную погоду, а также при ветре 12 м/с и более поправка равна нулю.
P - Атмосферное давление - приведенное к уровню моря атмосферное давление.
Po - Атмосферное давление - измеренное на уровне метеостанции атмосферное давление.
Tmin - Минимальная температура - минимум температуры воздуха на высоте 2 м над землей.
Tmax - Максимальная температура - максимум температуры воздуха на высоте 2 м над землей.
R - Количество осадков - Количество выпавших осадков за период времени, мм. При наведении курсора мыши на число - период времени, за который выпало указанное количество осадков.
R24 - Количество осадков - Количество выпавших осадков за 24 часа, мм.
S - Снежный покров - Высота снежного покрова, см. При наведении курсора мыши на число - состояние снежного покрова и степень покрытия местности в баллах.